Volver al catálogo

FALCON 9 R/B

ActivoHEO
NORAD 41590·ROCKET BODY·🇺🇸 United States

Lanzado Jun 15, 2016 desde Cape Canaveral Space Force Station

Loading…

Próximos Pases (próximas 24 horas)

TLE

ActualizadoSource: Space-Track

Época: Sep 13, 2026, 20:05 UTC

1 41590U 16038C   26256.83724966  .00000204  00000-0  47350-3 0  9991
2 41590  23.1394 302.5034 7968000 344.4146   1.3407  1.46146405 47362

Sigue FALCON 9 R/B en tiempo real con AllMySat

Download on the App Store